Weather History for Munising, MI

Change the Weather History Date:

Saturday, March 9, 2013

  Actual Average (KISQ) Record (KISQ)
Temperature  
Mean Temperature 34 °F -  
Max Temperature 39 °F 34 °F 47 °F (1955)
Min Temperature 28 °F 14 °F -22 °F (1972)
Degree Days  
Heating Degree Days 32    
Moisture  
Dew Point 26 °F    
Average Humidity 73    
Maximum Humidity 85    
Minimum Humidity 55    
Precipitation  
Precipitation 0.07 in - - ()
Sea Level Pressure  
Sea Level Pressure 30.10 in    
Wind  
Wind Speed 11 mph (South)    
Max Wind Speed 15 mph    
Max Gust Speed 24 mph    
Averages and records for this station are not official NWS values.
T = Trace of Precipitation, MM = Missing Value Source: NWS Daily Summary

Daily Weather History Graph

Daily Weather History Graph

Search for Another Location

Airport:

Trip Planner

Search our weather history database for the weather conditions in past years. The results will help you decide how hot, cold, wet, or windy it might be!

Date:

Astronomy

Mar. 09, 2013 Rise Set
Actual Time 7:10 AM EST 6:44 PM EST
Civil Twilight 6:40 AM EST 7:14 PM EST
Nautical Twilight 6:05 AM EST 7:49 PM EST
Astronomical Twilight 5:30 AM EST 8:24 PM EST
Moon 5:40 AM EST (3/9) 4:41 PM EST (3/9)
Length of Visible Light 12h 34m
Length of Day
11h 34m
Waning Crescent, 5% of the Moon is Illuminated
Mar 9
Waning Crescent
Mar 11
New
Mar 19
First Quarter
Mar 27
Full
Apr 3
Last Quarter

Hourly Weather History & Observations

Time (EST) Temp. Windchill Dew Point Humidity Pressure Visibility Wind Dir Wind Speed Gust Speed Precip Events Conditions
12:56 AM 28.9 °F 19.2 °F 23.0 °F 78% 30.28 in - South 11.5 mph - N/A   Unknown
1:56 AM 28.9 °F 19.2 °F 24.1 °F 82% 30.29 in - SSW 11.5 mph 18.4 mph N/A   Unknown
2:56 AM 30.0 °F 19.5 °F 24.1 °F 79% 30.26 in - SSW 13.8 mph 21.9 mph N/A   Unknown
3:56 AM 30.0 °F 19.1 °F 24.1 °F 79% 30.25 in - South 15.0 mph - N/A   Unknown
4:56 AM 30.0 °F 23.2 °F 25.0 °F 82% 30.24 in - South 6.9 mph - N/A   Unknown
5:56 AM 30.0 °F 22.4 °F 25.0 °F 82% 30.23 in - South 8.1 mph - N/A   Unknown
6:56 AM 30.0 °F 21.1 °F 25.0 °F 82% 30.22 in - South 10.4 mph - N/A   Unknown
7:56 AM 30.9 °F 23.5 °F 26.1 °F 82% 30.22 in - South 8.1 mph - N/A   Unknown
8:56 AM 32.0 °F 24.2 °F 28.0 °F 85% 30.20 in - South 9.2 mph - N/A   Unknown
9:56 AM 35.1 °F 27.9 °F 28.0 °F 76% 30.19 in - South 9.2 mph - N/A   Unknown
10:56 AM 36.0 °F 28.0 °F 27.0 °F 70% 30.17 in - South 11.5 mph 18.4 mph N/A   Unknown
11:56 AM 36.0 °F 29.0 °F 27.0 °F 70% 30.14 in - South 9.2 mph - N/A   Unknown
12:56 PM 37.9 °F 30.5 °F 26.1 °F 62% 30.12 in - South 11.5 mph 20.7 mph N/A   Unknown
1:56 PM 39.0 °F 32.3 °F 26.1 °F 60% 30.08 in - South 10.4 mph 17.3 mph N/A   Unknown
2:56 PM 37.9 °F 30.0 °F 27.0 °F 65% 30.06 in - South 12.7 mph - N/A   Unknown
3:56 PM 37.0 °F 28.1 °F 28.0 °F 70% 30.03 in - South 15.0 mph 20.7 mph N/A   Unknown
4:56 PM 37.0 °F 29.8 °F 26.1 °F 65% 30.01 in - South 10.4 mph 16.1 mph N/A   Unknown
5:56 PM 37.9 °F 32.1 °F 25.0 °F 60% 29.98 in - SSE 8.1 mph - N/A   Unknown
6:56 PM 39.0 °F 33.4 °F 24.1 °F 55% 29.95 in - SSE 8.1 mph - N/A   Unknown
7:56 PM 37.9 °F 30.5 °F 25.0 °F 60% 29.91 in - SSE 11.5 mph 21.9 mph 0.01 in   Unknown
8:56 PM 37.0 °F 28.5 °F 27.0 °F 67% 29.90 in - South 13.8 mph 24.2 mph N/A   Unknown
9:56 PM 35.1 °F 26.4 °F 28.9 °F 78% 29.89 in - South 12.7 mph 21.9 mph 0.02 in   Unknown
10:56 PM 35.1 °F 25.9 °F 30.0 °F 82% 29.87 in - South 13.8 mph 23.0 mph 0.03 in   Unknown
11:56 PM 36.0 °F 27.5 °F 30.9 °F 82% 29.85 in - South 12.7 mph 19.6 mph 0.01 in   Unknown